This is the latest recevied weather packets stored in our database for station/object KB0Y. If no packets are shown the sender has not sent any weather packets the latest 10 day(s).
| Time | Temp. | Humidity | Pressure | Rain* | Wind** | Luminosity | Snow |
|---|---|---|---|---|---|---|---|
| 1777941126 | 21.11° C | 68% | 1018.9 hPa | 0 mm | - | 0 W/m² | - |
| 1777940822 | 21.67° C | 73% | 1018.6 hPa | 0 mm | - | 0 W/m² | - |
| 1777940520 | 21.67° C | 70% | 1018.6 hPa | 0 mm | - | 0 W/m² | - |
| 1777940216 | 22.22° C | 59% | 1018.6 hPa | 0 mm | - | 0 W/m² | - |
| 1777939914 | 22.78° C | 54% | 1018.6 hPa | 0 mm | - | 1 W/m² | - |
| 1777939611 | 22.78° C | 54% | 1018.9 hPa | 0 mm | - | 5 W/m² | - |
| 1777939309 | 23.33° C | 51% | 1018.9 hPa | 0 mm | - | 16 W/m² | - |
| 1777939004 | 23.89° C | 52% | 1018.9 hPa | 0 mm | - | 22 W/m² | - |
| 1777938701 | 23.89° C | 55% | 1018.6 hPa | 0 mm | - | 22 W/m² | - |
| 1777938399 | 24.44° C | 54% | 1018.6 hPa | 0 mm | - | 26 W/m² | - |
| 1777938096 | 25° C | 51% | 1018.6 hPa | 0 mm | - | 30 W/m² | - |
| 1777937791 | 25.56° C | 47% | 1018.9 hPa | 0 mm | - | 34 W/m² | - |
| 1777937487 | 26.11° C | 46% | 1018.6 hPa | 0 mm | - | 37 W/m² | - |
| 1777937186 | 26.11° C | 48% | 1018.9 hPa | 0 mm | - | 41 W/m² | - |
| 1777936882 | 26.67° C | 43% | 1018.6 hPa | 0 mm | - | 51 W/m² | - |
| 1777936579 | 26.67° C | 46% | 1018.6 hPa | 0 mm | - | 57 W/m² | - |
| 1777936275 | 26.67° C | 39% | 1018.6 hPa | 0 mm | - | 89 W/m² | - |
| 1777935971 | 27.22° C | 38% | 1018.6 hPa | 0 mm | - | 274 W/m² | - |
| 1777935670 | 27.22° C | 39% | 1018.6 hPa | 0 mm | - | 290 W/m² | - |
| 1777935368 | 27.22° C | 39% | 1018.6 hPa | 0 mm | - | 304 W/m² | - |
| 1777935064 | 27.22° C | 39% | 1018.6 hPa | 0 mm | - | 318 W/m² | - |
| 1777934761 | 27.22° C | 39% | 1018.6 hPa | 0 mm | - | 332 W/m² | - |
| 1777934458 | 27.78° C | 40% | 1018.6 hPa | 0 mm | - | 347 W/m² | - |
| 1777934155 | 27.78° C | 38% | 1018.6 hPa | 0 mm | - | 365 W/m² | - |
| 1777933850 | 27.78° C | 39% | 1018.6 hPa | 0 mm | - | 368 W/m² | - |
* Rain latest hour (hover to see other rain measurements)
** Current wind speed in m/s (hover to see current wind gust speed)